Wind_Speed
105 108 111 112 113 114 116 119 124 127 131 133 135 137 139 142 145 146 148 149 150 150 151 152 153 154 155 155 155 155 155 156 156 155 154 152 151 149 147 146 145 144 143 143 143 144 145 146 147 148 148 148 148 147 147 146 145 144 143 142 142 142 141 141 140 140 139 139 138 137 136 134 133 132
98 102 106 108 109 110 112 115 119 123 126 130 132 134 136 139 141 144 145 147 148 148 150 151 152 153 155 156 156 156 156 156 157 157 156 155 154 152 151 149 148 146 145 145 144 143 143 143 143 144 145 145 146 146 147 146 145 144 143 142 142 141 141 141 141 140 139 139 138 137 136 135 134 133
92 96 99 102 104 107 109 112 114 117 121 125 128 131 133 134 137 140 142 144 145 146 147 149 151 152 154 156 157 156 156 157 157 157 157 157 156 156 154 153 152 150 148 147 146 145 144 143 142 141 141 141 142 143 144 145 144 143 143 142 141 141 141 141 140 140 139 139 138 137 136 134 134 133
89 90 93 96 99 103 106 108 110 112 115 118 122 125 127 129 131 134 137 139 140 142 144 147 149 151 153 155 156 156 157 157 157 157 156 156 157 157 157 156 155 153 152 150 149 147 146 145 143 141 140 139 139 139 140 141 141 141 141 141 141 140 140 140 140 140 139 139 138 136 135 134 133 132
87 88 89 91 94 97 101 103 105 107 109 112 115 117 120 123 126 129 132 133 135 139 142 144 146 149 151 152 154 155 156 156 157 157 156 155 156 157 157 157 157 156 155 153 151 150 149 147 146 144 142 140 139 138 137 137 137 137 137 137 138 138 138 139 139 138 139 138 137 136 134 133 132 131
85 86 87 88 89 91 94 97 100 102 104 106 108 111 113 117 120 124 127 129 131 136 140 142 143 146 148 150 151 152 154 155 156 156 156 156 156 156 156 157 158 158 157 155 154 153 152 151 149 147 145 143 141 139 138 137 136 135 135 134 134 134 135 135 136 136 136 136 135 134 133 132 131 130
80 82 84 85 86 87 88 91 94 96 99 101 103 105 108 111 115 119 123 126 128 132 136 138 140 142 145 148 149 150 152 153 155 155 156 156 156 156 156 156 157 158 158 157 156 156 155 154 153 151 149 147 144 142 140 139 137 136 135 133 132 132 132 132 132 132 132 132 132 131 130 128 127 127
74 77 80 82 83 84 85 86 88 90 93 95 98 100 103 105 109 113 118 122 125 128 131 134 136 139 142 146 148 149 150 152 153 154 155 155 156 157 156 156 156 157 158 158 157 157 158 157 156 154 152 150 148 145 143 142 140 138 137 135 133 132 131 131 130 130 129 129 128 128 127 125 124 123
68 71 74 77 79 81 83 84 84 85 87 89 92 95 98 101 104 108 112 117 121 124 126 129 131 134 138 142 145 147 148 150 151 153 153 154 155 156 156 156 157 157 158 157 157 157 158 158 157 156 155 153 151 149 147 145 143 141 140 138 136 134 133 132 131 130 129 128 128 127 126 124 123 121
63 66 68 72 74 77 80 81 81 81 82 84 86 89 93 96 100 104 108 111 115 118 121 123 126 130 134 138 141 144 146 148 149 150 151 152 153 154 154 155 156 157 158 157 156 155 156 157 157 157 157 156 154 152 150 149 147 145 143 141 139 138 136 134 133 132 131 130 129 128 127 125 124 122
57 60 63 66 69 72 75 76 77 78 79 80 81 84 88 91 95 99 103 106 109 111 115 118 121 125 130 133 136 139 141 144 146 147 148 149 150 151 152 153 154 156 157 157 156 155 155 156 156 156 157 157 156 155 154 153 151 148 146 145 143 141 140 138 136 135 134 133 131 130 129 127 126 124
52 55 58 61 64 67 69 71 73 75 76 77 79 81 84 86 89 93 97 100 103 106 110 114 118 122 125 128 131 134 136 139 141 143 144 146 147 148 149 150 151 153 155 157 157 156 155 156 156 156 156 156 157 156 156 155 154 152 150 148 147 145 144 142 141 139 138 136 135 134 132 130 128 127
49 51 54 57 59 62 65 67 70 72 73 75 77 79 81 83 84 87 90 94 98 102 107 110 114 118 120 123 127 130 132 134 136 138 140 142 144 145 146 147 148 150 152 154 155 156 155 155 156 155 155 155 155 156 156 155 155 154 153 152 151 149 148 147 145 144 142 141 139 138 136 134 132 130
46 49 51 53 56 58 61 64 66 69 71 73 75 76 78 80 82 84 86 89 93 97 102 106 110 113 116 119 122 126 129 131 133 135 137 139 140 142 144 145 146 146 148 149 152 153 154 155 155 155 155 155 155 155 155 155 155 155 155 155 154 154 153 151 149 148 146 144 143 141 140 138 136 134
44 46 48 51 53 55 58 61 63 66 68 70 72 73 75 77 80 82 85 86 89 92 97 101 105 108 111 114 118 122 125 127 129 131 134 136 138 140 141 143 144 144 145 146 148 150 152 153 153 154 154 155 155 155 155 155 155 155 156 156 156 156 155 154 152 151 149 148 146 144 143 141 140 138
42 43 45 47 50 52 55 57 60 63 65 68 70 71 73 75 77 80 82 84 86 89 92 96 99 102 106 110 114 117 119 122 124 127 130 132 134 136 138 139 141 142 143 144 145 146 148 150 151 152 152 153 153 154 154 154 154 155 156 156 156 155 155 154 154 153 152 151 149 147 146 145 144 142
40 42 43 45 47 49 51 54 56 59 62 64 67 69 71 73 75 77 79 81 84 87 89 92 94 97 100 104 108 112 115 118 120 123 126 128 130 132 134 135 137 138 140 141 142 142 143 145 147 148 148 149 150 152 153 153 153 154 155 155 155 154 154 154 154 154 154 153 152 151 149 148 147 147
38 40 41 43 45 46 48 50 53 55 58 61 63 66 69 71 73 75 77 79 81 84 87 89 91 93 96 99 103 106 110 113 116 119 122 124 126 129 131 132 133 135 136 138 138 139 139 140 141 143 144 145 146 148 150 152 152 153 154 154 154 153 152 152 153 153 153 153 153 153 152 151 151 150
37 38 40 41 43 45 46 48 50 52 55 57 59 62 65 68 70 72 75 77 79 81 84 87 89 92 94 96 99 102 104 107 111 114 118 120 123 125 127 128 129 130 131 132 133 134 134 135 137 139 140 141 142 144 146 148 150 151 151 152 152 152 151 151 151 151 152 152 153 153 153 153 153 153
35 37 38 40 42 43 45 46 48 50 52 54 56 58 61 63 66 69 72 74 77 79 81 84 86 88 90 93 95 97 100 102 104 108 111 114 116 119 121 123 124 125 126 126 128 129 130 131 133 135 136 137 138 139 141 143 146 147 147 149 150 151 150 149 149 149 150 151 152 153 154 154 154 155
34 35 37 38 40 42 43 45 46 48 50 52 53 55 57 60 62 65 68 71 73 76 79 82 84 86 87 89 91 94 96 97 99 101 104 106 108 111 114 116 119 121 123 123 125 126 128 129 130 131 132 133 135 136 136 138 140 141 142 143 146 148 149 149 148 149 150 151 153 154 155 155 155 155
32 33 35 36 38 40 41 43 45 46 48 49 51 53 55 57 59 61 63 66 69 72 75 78 81 83 84 86 88 90 92 93 94 97 99 101 102 104 106 110 113 116 119 120 120 122 124 125 126 127 128 129 131 132 133 134 135 136 137 138 141 144 146 147 147 148 149 151 152 153 154 155 156 156
30 32 33 35 36 38 40 41 43 44 46 47 49 51 53 55 56 58 59 62 64 67 70 74 77 79 81 84 86 88 89 90 91 93 96 98 98 99 101 105 108 111 113 115 116 117 119 121 122 122 123 125 126 127 128 130 131 132 133 134 136 138 141 143 145 145 147 149 150 152 153 154 155 156
28 30 31 33 35 36 38 40 42 43 44 46 47 49 51 52 53 54 56 58 60 62 65 68 71 74 77 79 82 84 85 86 88 90 92 94 94 95 98 100 104 107 109 111 112 112 114 116 118 118 119 120 121 122 124 125 126 128 128 129 131 133 135 138 140 141 143 144 147 149 151 152 152 153
25 27 29 31 32 34 36 38 40 41 43 44 46 48 49 49 50 51 53 55 57 59 61 64 66 69 72 75 77 79 81 82 84 87 89 90 92 93 94 96 99 103 105 107 107 107 107 109 112 113 114 116 116 117 119 121 122 123 124 125 127 128 130 132 134 136 138 140 142 144 147 148 149 150
22 24 26 27 29 31 33 34 36 38 40 42 44 46 47 47 48 50 52 53 54 57 59 61 63 65 67 70 72 74 76 78 80 82 85 87 89 90 92 93 95 97 100 101 102 102 102 103 105 108 110 111 112 113 115 116 117 119 120 122 123 125 126 128 130 131 133 135 137 139 142 144 146 147
19 21 22 24 26 28 30 31 33 34 36 38 40 42 44 45 46 47 49 51 53 54 56 58 60 62 64 66 67 69 71 73 75 77 79 82 84 85 87 89 91 92 94 96 96 97 98 99 100 102 104 105 107 108 110 111 113 114 116 117 119 120 122 124 126 128 129 131 133 135 137 139 141 143
17 18 19 21 22 24 26 28 30 31 33 35 37 38 40 41 42 44 46 48 49 51 54 56 58 59 61 63 64 65 67 68 70 72 74 76 78 80 82 84 86 88 89 91 92 94 95 96 97 98 99 100 102 103 105 107 108 110 111 112 114 115 117 119 121 123 125 127 129 131 133 135 137 138
14 15 17 18 19 20 22 24 26 29 30 32 34 35 36 37 38 40 42 44 46 48 50 53 54 56 57 59 60 61 62 64 66 68 70 72 74 76 79 81 83 84 86 87 88 90 91 93 93 94 95 96 97 99 100 102 103 105 106 107 109 111 112 114 116 118 120 122 125 127 128 130 131 133
13 14 15 16 17 18 19 21 23 25 27 29 31 32 33 33 34 37 39 41 43 45 47 49 50 51 52 54 55 56 57 60 62 64 66 68 70 72 74 76 78 80 82 83 84 86 88 89 90 91 92 93 94 95 96 98 99 101 102 103 104 106 108 110 111 113 115 118 120 122 124 125 126 128
12 12 13 14 15 16 17 18 20 21 23 25 28 29 30 31 32 33 36 38 40 43 45 46 47 48 49 50 51 52 53 56 58 60 62 64 66 67 69 71 74 76 78 80 82 83 85 87 88 89 90 91 92 93 94 95 96 97 98 99 101 102 103 105 107 109 111 113 115 117 119 120 122 123
10 11 12 13 13 14 16 17 18 19 20 22 24 26 27 28 29 31 33 35 37 40 42 44 45 46 47 48 50 51 52 54 55 56 58 60 61 63 66 68 70 72 74 76 78 80 82 83 85 85 86 87 89 90 91 92 93 94 96 97 98 99 100 102 104 105 107 109 111 112 114 116 117 119
9 10 10 11 11 12 14 15 17 18 19 20 21 23 24 25 27 28 30 32 35 37 39 40 42 43 44 45 47 49 51 52 53 54 56 57 59 60 63 65 67 69 71 72 74 76 77 79 80 81 82 84 85 86 87 88 90 91 93 95 96 97 98 100 102 103 104 106 107 108 110 112 113 115
7 8 9 10 10 11 12 13 15 16 18 18 19 20 21 23 24 26 27 29 32 34 36 37 38 39 40 41 43 45 46 48 49 52 54 55 57 59 61 63 64 66 68 69 71 72 74 75 77 78 79 81 82 83 84 86 87 89 91 92 94 95 96 98 100 101 102 103 104 105 107 108 110 111
5 6 7 8 9 10 11 11 12 14 16 17 18 18 19 20 22 23 25 27 28 31 33 34 35 36 37 38 39 40 42 43 45 48 49 51 53 55 57 59 61 62 64 65 67 68 70 72 73 75 76 78 80 81 82 84 86 88 89 91 92 93 94 95 96 97 98 99 101 102 104 105 107 109
4 5 5 6 7 8 9 10 10 11 12 14 15 16 17 18 19 21 23 24 26 28 30 31 33 33 34 35 36 37 39 40 42 43 45 47 49 50 52 54 56 57 59 60 62 63 65 67 68 70 72 74 75 77 79 81 83 84 85 86 87 88 89 90 91 93 94 96 98 99 101 103 105 107
4 4 5 5 5 6 7 7 8 9 9 10 11 13 14 15 17 18 20 22 23 25 27 28 30 31 32 33 34 35 37 38 39 41 42 44 45 47 49 51 52 54 55 57 58 59 61 62 64 65 67 68 70 72 75 77 77 78 80 81 82 83 85 86 88 89 91 93 95 97 98 100 102 104
5 5 5 5 5 5 6 6 6 7 8 9 9 10 11 12 13 15 17 19 20 22 24 25 27 28 29 31 32 33 34 36 37 38 40 41 43 44 46 48 49 51 52 54 55 57 58 60 61 62 64 65 67 69 71 73 73 74 76 77 78 79 81 82 84 85 87 88 90 91 93 95 96 98
5 5 5 5 6 6 6 6 6 6 7 7 8 8 9 9 10 11 12 14 16 18 20 22 24 25 27 28 29 30 32 33 34 36 37 38 40 41 43 44 46 48 49 51 52 54 55 57 58 60 61 63 65 67 68 69 70 71 73 74 75 76 77 78 79 81 82 84 86 87 88 90 91 94
5 5 5 5 5 6 6 6 6 6 6 6 7 7 7 7 7 7 8 9 11 13 15 17 19 21 23 25 27 28 30 31 32 34 35 36 37 39 40 42 43 45 46 48 49 51 52 54 56 57 59 60 62 64 64 66 67 69 70 70 71 73 74 75 76 78 80 82 83 84 85 87 88 90
6 5 5 5 5 5 6 6 6 6 7 7 7 6 6 6 6 6 6 7 8 9 11 13 15 17 19 21 23 25 26 28 30 31 33 34 35 37 38 40 41 42 44 45 47 48 50 51 53 54 56 58 59 61 62 63 65 66 66 67 68 69 71 73 74 75 77 79 80 80 82 84 85 86
7 7 7 6 6 6 6 6 6 6 6 6 7 7 7 7 7 7 7 7 7 8 9 10 12 14 15 17 19 21 22 24 26 28 29 31 32 34 35 37 38 40 41 43 44 46 47 49 50 52 53 55 56 58 59 61 62 63 63 64 65 67 69 71 72 73 74 75 76 78 79 81 81 82
9 9 8 8 8 8 7 7 7 7 7 7 7 7 7 7 8 8 8 9 9 9 9 10 11 12 13 15 16 17 19 20 22 24 25 27 28 30 31 33 34 36 37 39 41 42 44 46 47 49 51 52 54 55 57 59 59 59 61 62 63 65 67 69 70 70 71 73 75 76 77 78 78 79
10 10 9 10 10 9 9 9 9 8 8 8 8 8 8 8 9 9 9 10 10 10 11 11 11 12 13 14 15 16 17 18 19 21 22 23 25 26 28 29 31 33 34 36 38 39 41 43 44 46 48 49 51 52 54 55 56 57 59 60 61 63 65 66 67 68 70 72 74 75 76 75 75 76
10 10 10 10 10 10 10 10 10 9 9 9 8 8 9 9 9 10 10 11 11 11 12 12 13 13 14 14 15 16 17 18 19 20 21 22 23 25 26 27 29 31 32 34 36 37 39 41 42 44 46 47 48 50 52 53 55 56 57 58 60 61 63 64 66 67 69 71 73 73 72 72 72 74
Wind_Direction
240 240 240 239 238 237 236 235 235 234 234 234 234 233 232 232 233 232 233 234 234 234 234 234 234 235 236 236 236 236 236 236 237 237 237 236 237 237 237 238 239 239 239 239 240 240 240 240 241 241 242 242 243 243 244 244 245 245 245 246 246 247 248 249 249 250 250 251 251 252 253 253 254 254
239 239 240 240 239 238 237 236 235 234 234 234 234 234 233 232 232 233 232 233 233 233 234 234 234 234 235 236 236 236 236 236 236 236 237 237 237 237 237 237 238 238 239 239 240 240 240 240 240 241 241 242 243 243 244 244 244 245 245 245 246 247 247 248 249 249 250 250 251 251 252 252 253 254
239 239 239 239 239 239 238 237 236 235 234 234 234 234 234 233 233 233 232 232 233 233 233 234 234 234 234 235 235 236 236 236 236 236 236 236 237 237 237 237 237 238 238 239 240 240 240 240 240 240 240 241 242 242 243 244 244 244 245 245 246 246 247 247 248 249 249 250 250 251 251 252 252 253
239 238 238 238 238 238 238 238 237 236 235 235 235 235 235 235 234 234 233 232 233 233 233 233 234 234 234 235 235 235 236 236 237 237 236 236 237 237 237 237 237 237 237 238 239 240 240 240 240 240 240 240 241 241 242 243 243 244 244 245 245 246 246 247 248 248 249 249 250 250 250 251 252 252
238 238 238 238 237 237 238 238 238 237 236 236 235 234 234 234 235 234 234 233 232 233 233 232 233 234 235 235 235 236 236 236 236 237 237 237 237 237 237 238 238 238 238 238 238 239 240 241 241 241 240 240 240 241 241 242 243 243 243 244 245 245 246 246 247 248 248 249 249 249 250 250 251 251
238 238 238 238 238 238 237 237 237 237 237 236 236 235 234 233 233 234 234 233 232 232 233 232 232 233 234 235 235 235 236 236 236 237 237 237 237 237 237 238 238 239 239 238 238 239 240 240 241 241 241 241 241 241 241 241 242 242 243 243 244 244 245 246 246 247 248 248 249 249 249 250 250 251
239 238 238 237 237 237 238 238 237 237 236 236 236 235 234 233 232 232 233 233 232 232 232 232 232 232 233 234 235 235 236 236 236 236 237 237 238 238 238 238 238 238 239 239 239 239 239 240 240 241 241 241 241 241 241 241 241 242 242 242 243 243 244 245 245 246 247 247 248 249 249 249 250 250
240 239 238 237 236 236 237 237 237 237 236 236 235 235 234 233 232 232 232 232 232 232 232 232 232 232 233 234 235 235 235 236 236 236 236 236 237 238 238 238 238 238 239 238 238 239 239 240 240 240 241 241 241 241 241 241 241 242 242 242 243 243 243 244 245 245 246 247 247 248 248 248 249 249
239 238 238 237 236 235 235 236 236 237 236 236 235 234 234 233 232 232 232 232 232 232 232 232 232 232 233 233 234 235 235 236 236 236 236 236 236 237 238 238 239 239 239 239 238 239 239 240 240 241 241 241 241 242 242 242 242 242 242 242 243 243 243 244 244 245 245 246 246 247 247 247 247 248
239 239 238 237 236 235 235 235 235 235 236 236 236 235 234 233 232 232 232 232 232 232 232 232 232 232 233 233 234 235 235 236 236 236 237 237 236 236 237 237 238 239 240 240 239 239 239 240 240 241 241 241 241 241 242 242 242 242 243 243 243 243 243 243 244 244 245 245 246 246 246 247 247 247
239 239 238 237 236 235 234 234 234 234 234 234 235 235 235 234 233 232 232 232 231 232 232 232 232 232 232 233 234 234 235 236 236 237 237 237 238 237 237 237 238 238 240 240 240 240 240 240 240 240 241 242 242 242 242 242 242 242 243 243 243 243 243 243 244 244 245 245 246 246 246 247 247 247
238 238 237 236 236 235 235 234 234 233 233 233 233 233 234 234 233 233 232 232 231 231 231 231 231 231 232 232 233 234 235 235 236 237 238 238 238 238 238 237 237 238 239 240 241 241 240 240 240 240 240 241 242 242 242 242 242 242 242 243 243 244 244 244 244 244 244 245 245 246 246 246 247 247
237 236 235 235 235 234 234 234 234 234 233 233 232 232 232 233 233 233 233 232 231 231 231 231 231 231 231 232 232 233 234 235 236 236 237 238 238 239 239 239 238 238 238 239 240 241 241 241 241 241 241 241 241 242 242 243 243 243 243 243 243 243 244 244 244 244 244 245 245 246 246 246 246 247
236 235 234 234 233 233 233 232 232 233 233 233 233 233 232 232 232 232 232 232 231 231 231 231 231 231 231 231 232 232 233 234 234 235 236 237 237 238 239 239 239 239 239 239 239 240 241 241 241 241 241 241 241 242 242 243 243 243 243 243 243 243 243 244 244 245 245 245 246 246 247 247 247 247
237 236 235 234 233 232 232 232 231 231 232 232 233 233 233 233 232 232 232 231 231 231 231 231 231 232 231 231 231 232 233 233 234 235 235 236 236 237 238 239 239 239 239 239 239 239 240 241 241 241 241 242 242 242 242 242 243 243 243 243 243 243 243 244 244 245 245 246 246 246 247 247 248 248
238 238 237 236 235 233 233 232 232 231 231 231 232 232 232 233 233 233 232 232 232 232 232 232 232 232 232 231 232 232 233 233 234 235 235 236 236 237 237 238 239 239 239 239 239 239 239 240 241 241 241 241 242 242 243 243 243 243 243 244 244 244 244 244 244 245 245 246 246 247 247 248 248 248
238 238 237 237 236 235 234 233 233 232 232 232 231 231 231 231 232 232 233 233 232 232 233 233 233 232 232 232 232 232 232 233 233 234 235 236 237 237 238 238 239 239 240 240 240 240 240 240 241 241 241 241 241 242 242 243 243 243 244 244 244 244 244 244 245 245 245 246 246 246 247 247 248 249
237 237 237 237 236 236 235 234 234 233 233 232 232 232 231 231 231 231 231 232 233 233 233 233 233 233 233 233 233 233 233 233 233 234 234 235 236 237 238 238 239 239 240 240 241 241 241 241 241 241 242 241 241 241 242 243 243 243 244 244 245 245 245 245 245 245 246 246 246 247 247 247 248 248
236 236 236 236 236 236 235 235 235 234 234 233 232 232 232 232 231 231 231 231 231 232 233 233 234 233 233 233 233 233 234 234 234 234 235 235 236 237 238 239 239 240 240 241 241 242 242 242 242 242 242 242 242 242 242 242 243 243 244 245 245 246 246 245 245 246 246 247 247 247 247 247 247 248
236 236 235 236 236 236 235 235 235 235 235 234 234 233 232 232 231 231 231 231 231 231 231 233 234 235 234 234 234 234 235 235 235 235 236 236 237 237 238 239 240 241 241 242 242 242 243 243 243 243 243 243 243 243 242 242 243 243 243 244 245 246 246 246 246 246 246 246 247 247 248 248 248 248
238 237 236 236 236 236 236 236 235 235 234 235 235 235 234 233 232 231 231 231 231 231 231 232 233 234 235 235 235 236 236 236 236 237 238 238 238 238 238 239 240 240 241 241 242 242 242 243 243 244 244 244 244 244 244 244 244 244 244 244 244 245 246 246 246 246 247 247 247 247 247 248 248 248
237 237 236 236 236 236 236 236 236 236 235 235 235 235 235 234 233 232 232 231 231 231 231 232 232 233 233 234 234 235 236 237 237 237 238 239 239 239 239 239 240 240 241 241 241 242 242 243 243 243 244 244 244 245 245 245 245 245 244 244 244 245 245 246 246 246 246 247 247 247 247 248 248 249
236 236 236 236 235 235 235 236 236 236 236 236 235 235 235 235 235 234 234 233 232 232 232 232 233 233 233 233 233 234 235 236 237 237 238 238 239 238 239 239 240 240 241 241 242 241 242 242 243 243 244 244 244 244 245 245 245 245 245 244 244 244 245 245 246 246 246 247 247 248 248 248 248 249
237 236 236 235 235 235 234 234 235 235 235 236 236 235 235 236 235 235 235 234 234 233 233 233 233 234 234 235 235 234 234 234 235 236 238 239 239 239 238 238 239 240 240 241 242 241 241 242 243 243 244 244 244 245 245 245 246 246 246 245 245 245 245 245 245 246 246 246 247 247 248 249 249 249
240 239 238 237 236 236 236 235 235 235 235 235 235 235 235 235 234 235 235 235 235 234 234 234 234 234 234 235 235 235 235 234 234 235 236 237 238 239 239 239 238 239 240 241 241 242 242 242 243 243 244 244 244 245 245 245 246 246 246 246 246 246 246 246 246 246 246 246 246 247 247 248 249 249
243 242 241 241 240 239 238 237 237 236 236 235 235 236 235 234 233 233 233 233 233 233 233 234 234 234 234 235 235 236 235 235 235 235 235 236 236 237 238 239 239 239 240 241 242 243 243 243 243 244 244 245 245 245 245 245 246 246 246 246 246 246 246 246 246 246 246 246 246 246 247 247 248 249
245 244 243 242 242 242 241 240 240 239 238 238 237 237 237 236 235 234 234 233 232 232 232 232 233 233 233 234 235 235 236 236 236 236 236 237 237 237 238 238 239 240 241 242 243 243 244 244 244 244 244 245 245 246 246 246 247 247 247 246 246 246 246 246 246 246 246 246 246 246 247 247 247 248
249 248 246 244 243 243 243 243 242 242 241 240 239 238 238 238 237 236 236 235 235 233 233 233 232 232 232 233 233 234 234 235 236 236 237 237 238 238 239 239 239 240 240 241 242 243 243 244 244 244 244 245 245 245 246 246 247 247 247 247 247 248 247 247 247 247 247 247 247 247 247 247 247 248
256 255 253 251 248 246 245 244 243 243 243 242 241 239 238 237 237 237 236 236 235 235 234 234 234 233 233 233 233 233 234 234 235 235 236 237 237 237 238 239 239 240 240 240 241 242 243 243 244 244 245 245 245 245 246 246 246 247 247 247 248 248 248 248 248 248 248 248 248 248 248 248 248 248
261 260 259 258 256 254 251 248 245 243 243 243 243 242 240 237 236 237 237 236 235 235 235 234 234 233 234 234 234 234 234 234 234 234 235 236 236 237 237 238 239 240 240 241 241 242 242 243 243 244 244 245 245 245 245 246 246 246 247 247 247 247 248 248 248 248 248 248 249 249 249 249 249 249
261 260 260 261 261 260 258 256 252 248 245 243 243 243 241 239 236 235 236 236 235 235 235 234 232 231 231 232 232 232 233 233 234 234 235 235 236 236 237 238 239 239 240 240 241 241 242 242 243 243 244 244 245 245 245 245 246 246 247 247 247 247 247 247 248 248 248 248 248 248 249 249 249 250
268 265 262 262 263 264 264 262 259 255 251 247 245 243 241 239 237 235 234 235 235 235 235 235 234 231 230 229 229 228 229 230 231 232 233 234 235 236 236 237 238 238 239 240 240 241 241 242 243 243 243 244 244 244 245 245 245 246 246 246 247 247 247 247 247 247 247 247 247 248 248 248 249 249
282 278 273 270 268 268 269 268 265 262 258 254 250 246 242 239 236 234 233 234 235 235 235 235 235 234 232 230 230 229 229 228 229 229 230 231 232 233 234 235 236 237 238 239 240 240 241 242 243 244 244 245 245 245 245 246 246 246 246 246 246 246 246 246 246 246 246 247 247 247 247 247 248 248
298 294 290 285 279 275 272 269 266 264 262 259 255 251 246 241 237 234 231 231 233 235 235 235 234 234 234 233 232 232 231 231 230 230 230 230 231 231 232 234 234 236 236 237 238 239 240 241 242 243 243 244 245 245 246 246 246 246 246 246 246 245 245 246 246 246 246 246 247 247 247 247 247 248
308 302 297 291 285 280 274 270 265 261 259 257 255 252 249 244 240 236 233 231 231 233 235 235 234 233 233 232 232 232 232 231 231 231 231 232 232 232 233 234 235 236 237 238 238 239 239 240 241 241 242 242 243 244 244 244 245 245 245 245 245 245 245 245 246 246 246 247 247 247 247 247 247 247
310 300 292 286 283 280 276 272 268 264 260 256 252 249 246 243 240 237 235 232 230 230 232 234 235 234 232 231 230 230 230 230 230 231 232 232 232 233 234 235 236 237 238 239 240 240 241 242 242 243 243 244 244 245 245 245 246 246 246 247 247 247 248 248 248 248 248 248 248 247 247 247 247 247
303 294 288 281 277 274 271 267 264 262 261 258 253 249 245 241 238 236 234 232 231 230 229 231 233 233 233 232 230 229 228 228 228 229 230 231 231 232 233 234 235 236 237 238 239 240 241 242 242 243 243 244 245 245 246 246 247 248 248 248 248 249 249 249 249 249 248 248 248 248 248 248 248 249
296 292 288 285 279 273 268 263 258 254 251 250 248 246 242 239 236 233 231 230 230 229 229 229 230 231 232 232 232 231 230 229 228 229 229 230 231 232 233 234 234 235 236 237 238 239 240 241 242 242 243 244 244 244 245 246 247 247 248 248 248 248 248 248 249 249 249 249 249 249 249 250 250 250
299 295 291 288 283 279 274 269 264 258 251 247 244 241 239 236 233 230 228 227 228 228 228 228 228 229 230 231 232 232 231 231 231 231 231 231 231 232 233 234 235 236 237 238 238 239 240 241 242 242 243 244 244 245 246 246 247 247 247 248 248 248 248 249 249 249 249 249 249 249 249 249 249 249
307 303 297 292 287 282 279 276 273 269 266 260 255 250 245 240 237 232 228 227 226 227 228 228 228 228 228 229 230 230 231 231 232 232 232 233 233 233 234 234 235 236 237 237 238 239 240 241 241 242 243 244 245 246 246 247 247 248 248 248 249 249 249 249 249 249 249 249 249 249 249 249 249 249
314 311 307 301 295 288 283 280 278 276 276 275 273 269 266 260 257 250 243 235 230 227 227 228 229 229 229 229 229 230 230 231 232 233 233 234 235 236 236 237 237 237 238 239 240 240 241 241 242 243 244 245 246 246 247 247 248 248 249 249 250 250 250 250 250 250 250 250 250 250 250 250 250 251
318 318 316 312 307 303 297 290 285 280 277 276 274 273 273 270 268 267 265 258 250 242 235 231 229 229 230 230 230 231 231 232 232 234 234 235 237 238 239 239 240 241 241 242 243 243 244 244 245 245 246 246 247 248 248 249 249 249 250 250 250 251 251 251 251 251 251 251 251 251 251 251 251 251
318 318 317 315 312 307 303 299 293 286 280 276 272 267 264 263 261 261 261 260 259 256 251 246 240 237 234 233 232 232 232 233 233 235 236 237 238 240 241 242 243 244 245 245 246 246 247 247 248 248 248 249 249 250 251 251 251 252 252 251 251 251 252 252 252 252 252 252 252 252 251 251 251 251
313 312 312 310 308 305 301 297 292 287 281 277 272 267 261 258 255 253 252 252 252 253 252 252 249 246 243 241 239 238 237 237 237 238 238 240 241 242 243 244 245 247 248 248 249 250 250 251 251 251 251 252 252 252 253 253 253 253 253 253 253 253 253 253 254 253 253 253 252 252 252 252 252 252
306 306 306 304 302 300 298 295 291 287 282 278 273 269 264 260 257 255 253 252 251 251 251 251 250 249 248 247 245 244 244 243 243 243 244 244 245 246 247 248 248 249 250 251 252 252 253 254 254 254 255 255 255 255 255 255 255 255 255 255 254 254 254 254 254 254 254 254 254 254 254 254 254 254
Height
10022 10026 10031 10037 10045 10054 10062 10068 10072 10078 10085 10093 10102 10113 10121 10127 10132 10139 10148 10156 10170 10184 10191 10197 10207 10216 10221 10229 10239 10247 10256 10265 10272 10278 10286 10296 10303 10310 10318 10325 10330 10336 10342 10349 10355 10362 10369 10375 10383 10391 10397 10403 10410 10416 10423 10431 10438 10445 10452 10456 10460 10465 10470 10474 10479 10484 10489 10494 10499 10504 10510 10516 10521 10524
10008 10012 10017 10024 10033 10040 10046 10051 10056 10062 10070 10077 10085 10094 10103 10111 10116 10123 10132 10141 10152 10165 10172 10179 10191 10199 10203 10209 10218 10227 10236 10245 10251 10257 10268 10279 10287 10294 10302 10309 10315 10320 10326 10332 10338 10345 10352 10360 10368 10376 10383 10389 10395 10401 10407 10415 10423 10430 10436 10441 10447 10452 10455 10459 10464 10469 10475 10480 10485 10491 10497 10503 10507 10510
9994 9999 10005 10011 10019 10025 10028 10034 10040 10048 10055 10062 10070 10078 10087 10095 10101 10107 10116 10126 10137 10147 10156 10164 10172 10180 10185 10189 10198 10207 10216 10224 10230 10238 10250 10261 10270 10277 10283 10290 10297 10304 10311 10317 10322 10329 10336 10344 10353 10361 10368 10374 10380 10386 10391 10398 10407 10414 10421 10426 10432 10437 10441 10445 10450 10455 10460 10465 10471 10477 10483 10488 10493 10496
9981 9987 9992 9997 10004 10008 10012 10019 10026 10034 10041 10048 10056 10064 10072 10080 10088 10095 10102 10113 10126 10133 10140 10148 10153 10159 10167 10172 10179 10189 10198 10206 10212 10221 10233 10243 10251 10258 10265 10272 10279 10288 10297 10303 10308 10313 10319 10327 10336 10345 10353 10359 10365 10371 10377 10383 10391 10399 10406 10411 10417 10422 10426 10430 10435 10440 10444 10450 10457 10463 10469 10475 10479 10482
9970 9975 9980 9984 9990 9994 9999 10006 10012 10019 10027 10034 10041 10049 10058 10066 10074 10081 10088 10100 10114 10118 10121 10130 10136 10142 10150 10156 10165 10174 10181 10189 10197 10205 10216 10226 10233 10241 10250 10258 10263 10271 10282 10289 10295 10300 10305 10312 10320 10328 10337 10344 10351 10357 10363 10369 10375 10383 10391 10396 10402 10407 10411 10415 10420 10425 10429 10435 10442 10448 10455 10460 10464 10468
9958 9963 9968 9973 9978 9983 9988 9994 9999 10006 10013 10019 10027 10035 10043 10052 10059 10066 10073 10084 10097 10100 10102 10113 10123 10129 10136 10141 10150 10160 10165 10173 10182 10189 10198 10207 10215 10225 10234 10242 10248 10255 10265 10274 10281 10287 10292 10297 10303 10311 10320 10328 10335 10342 10349 10355 10361 10368 10375 10382 10388 10393 10397 10401 10406 10410 10415 10420 10426 10433 10440 10446 10450 10454
9946 9952 9957 9962 9968 9973 9978 9983 9987 9994 10000 10006 10014 10021 10029 10037 10044 10051 10057 10067 10077 10082 10087 10098 10108 10115 10121 10124 10133 10143 10150 10156 10163 10170 10181 10190 10198 10207 10216 10224 10232 10238 10246 10256 10265 10271 10276 10281 10287 10294 10301 10310 10319 10327 10334 10341 10347 10353 10360 10367 10374 10379 10383 10387 10392 10396 10401 10406 10412 10418 10425 10432 10436 10440
9935 9940 9945 9951 9957 9963 9967 9971 9976 9982 9988 9994 10001 10008 10014 10023 10030 10036 10043 10051 10059 10067 10074 10083 10092 10101 10106 10109 10116 10125 10132 10139 10145 10152 10163 10173 10180 10188 10197 10206 10214 10219 10226 10236 10246 10253 10258 10264 10271 10278 10285 10294 10304 10312 10319 10326 10333 10339 10345 10352 10359 10365 10369 10374 10378 10383 10388 10393 10398 10403 10410 10417 10423 10427
9925 9929 9934 9940 9946 9952 9956 9960 9966 9972 9978 9983 9989 9995 10001 10009 10016 10022 10029 10036 10044 10053 10062 10070 10079 10087 10092 10095 10101 10108 10115 10123 10129 10135 10144 10154 10163 10171 10180 10189 10196 10200 10206 10216 10227 10236 10243 10250 10257 10263 10270 10279 10289 10297 10304 10311 10318 10325 10331 10337 10344 10350 10355 10360 10364 10369 10374 10379 10384 10389 10395 10401 10408 10413
9916 9920 9925 9930 9935 9940 9944 9950 9956 9962 9967 9973 9979 9984 9990 9996 10002 10008 10015 10022 10031 10041 10050 10058 10066 10072 10076 10080 10085 10092 10099 10106 10113 10120 10128 10137 10146 10155 10164 10172 10180 10185 10189 10198 10210 10221 10229 10236 10243 10249 10254 10264 10273 10281 10288 10295 10302 10309 10316 10323 10329 10335 10341 10346 10350 10355 10359 10364 10369 10375 10381 10385 10392 10399
9909 9912 9916 9921 9925 9930 9935 9941 9947 9952 9958 9964 9969 9973 9978 9983 9990 9997 10003 10010 10020 10029 10037 10045 10052 10056 10060 10066 10072 10079 10086 10091 10098 10106 10114 10122 10130 10139 10149 10157 10165 10170 10175 10181 10191 10203 10213 10220 10227 10233 10239 10246 10254 10262 10270 10277 10285 10293 10300 10307 10313 10319 10325 10331 10336 10340 10344 10349 10354 10360 10366 10371 10377 10384
9901 9905 9908 9912 9916 9921 9926 9932 9937 9942 9948 9954 9958 9962 9966 9972 9979 9986 9992 10000 10010 10017 10023 10030 10036 10040 10045 10052 10059 10066 10073 10079 10087 10094 10102 10109 10116 10124 10132 10142 10150 10155 10160 10166 10172 10182 10193 10201 10208 10216 10222 10229 10237 10243 10251 10259 10267 10276 10285 10292 10297 10302 10308 10313 10319 10324 10329 10333 10338 10344 10351 10357 10363 10368
9894 9897 9900 9904 9908 9912 9917 9923 9928 9933 9939 9943 9947 9951 9956 9962 9969 9975 9982 9990 9997 10002 10007 10014 10020 10025 10032 10040 10046 10052 10060 10068 10076 10082 10087 10094 10102 10109 10116 10124 10132 10138 10145 10151 10156 10163 10173 10182 10190 10198 10205 10214 10221 10226 10233 10242 10250 10258 10268 10275 10281 10285 10290 10296 10302 10308 10314 10318 10323 10328 10335 10342 10348 10353
9887 9890 9893 9896 9900 9904 9908 9913 9918 9923 9929 9933 9938 9943 9948 9953 9958 9963 9969 9976 9983 9988 9994 10000 10006 10013 10020 10027 10032 10038 10045 10052 10059 10065 10071 10079 10087 10093 10098 10105 10113 10122 10130 10137 10143 10148 10155 10163 10173 10182 10189 10196 10204 10210 10216 10224 10232 10239 10247 10254 10261 10267 10272 10278 10284 10291 10298 10304 10309 10314 10319 10327 10333 10339
9882 9885 9887 9890 9893 9897 9900 9904 9909 9913 9918 9923 9928 9934 9939 9944 9949 9953 9958 9964 9970 9976 9981 9987 9994 10001 10008 10014 10019 10024 10030 10038 10045 10051 10056 10063 10069 10075 10081 10088 10096 10105 10114 10121 10127 10133 10139 10145 10154 10164 10172 10179 10186 10194 10201 10208 10215 10221 10226 10233 10241 10249 10257 10264 10270 10276 10282 10289 10296 10300 10305 10311 10317 10324
9878 9880 9883 9886 9889 9892 9895 9898 9902 9906 9910 9914 9919 9924 9929 9934 9939 9944 9949 9955 9960 9965 9970 9975 9982 9989 9995 10001 10006 10012 10019 10027 10033 10037 10042 10048 10054 10059 10066 10074 10080 10087 10094 10101 10108 10115 10122 10128 10135 10144 10154 10163 10170 10177 10184 10191 10198 10204 10209 10214 10222 10232 10241 10249 10256 10261 10267 10273 10280 10286 10292 10296 10300 10305
9873 9875 9878 9880 9883 9887 9890 9893 9896 9900 9903 9907 9911 9915 9919 9923 9928 9934 9939 9945 9950 9955 9959 9965 9972 9978 9983 9988 9994 10000 10007 10013 10019 10023 10029 10036 10042 10047 10052 10058 10065 10071 10076 10083 10091 10099 10106 10114 10120 10128 10137 10147 10155 10162 10168 10174 10181 10188 10193 10197 10204 10213 10222 10231 10238 10245 10251 10257 10264 10270 10277 10281 10284 10287
9868 9870 9873 9875 9878 9881 9884 9887 9890 9893 9897 9900 9904 9907 9911 9914 9919 9924 9929 9934 9940 9945 9949 9954 9960 9965 9970 9976 9982 9987 9993 10000 10006 10011 10017 10022 10027 10031 10036 10041 10049 10055 10060 10067 10075 10084 10092 10101 10107 10114 10122 10131 10140 10147 10153 10158 10164 10171 10176 10181 10187 10195 10204 10213 10221 10228 10234 10241 10247 10254 10260 10266 10270 10272
9864 9866 9868 9870 9873 9875 9878 9881 9884 9887 9890 9893 9897 9901 9904 9908 9912 9916 9920 9924 9929 9934 9939 9943 9948 9952 9958 9964 9970 9975 9982 9989 9994 9999 10003 10008 10014 10019 10023 10029 10036 10043 10049 10057 10065 10072 10081 10089 10094 10100 10107 10114 10122 10130 10137 10142 10148 10155 10162 10168 10173 10179 10187 10196 10204 10212 10219 10225 10231 10236 10242 10248 10254 10257
9860 9862 9864 9866 9868 9870 9873 9875 9878 9881 9884 9887 9890 9894 9898 9902 9905 9909 9913 9917 9921 9925 9930 9934 9938 9942 9948 9954 9960 9966 9971 9977 9983 9988 9992 9998 10005 10011 10016 10022 10030 10036 10042 10050 10057 10063 10070 10076 10081 10086 10093 10099 10105 10114 10121 10127 10133 10140 10149 10155 10159 10164 10171 10179 10187 10194 10201 10207 10213 10217 10222 10228 10235 10240
9857 9858 9860 9862 9863 9865 9868 9870 9872 9875 9878 9881 9884 9887 9891 9894 9898 9902 9906 9910 9914 9918 9921 9925 9928 9933 9940 9946 9952 9957 9961 9967 9975 9980 9984 9991 9997 10003 10008 10015 10021 10025 10029 10037 10043 10049 10055 10061 10065 10072 10080 10085 10091 10098 10106 10112 10119 10126 10134 10141 10146 10150 10155 10162 10170 10176 10182 10187 10193 10198 10202 10207 10213 10219
9853 9854 9856 9857 9859 9861 9863 9865 9867 9870 9872 9875 9878 9881 9884 9887 9890 9894 9899 9903 9907 9911 9915 9918 9921 9925 9930 9935 9941 9946 9951 9957 9965 9971 9976 9981 9986 9992 9999 10004 10008 10011 10014 10021 10029 10034 10040 10045 10049 10057 10064 10069 10075 10082 10089 10096 10102 10109 10117 10124 10130 10135 10139 10145 10151 10158 10163 10168 10172 10178 10183 10188 10192 10197
9849 9850 9852 9853 9855 9857 9858 9860 9862 9865 9867 9870 9872 9875 9878 9880 9884 9888 9892 9896 9900 9904 9908 9911 9915 9918 9922 9926 9931 9935 9941 9948 9955 9961 9965 9968 9974 9982 9987 9990 9994 9998 10002 10008 10014 10020 10026 10031 10034 10042 10048 10053 10059 10066 10072 10078 10084 10090 10098 10106 10112 10118 10123 10127 10133 10139 10146 10151 10155 10159 10163 10169 10174 10178
9846 9847 9848 9849 9850 9852 9854 9855 9857 9859 9862 9864 9866 9869 9871 9875 9879 9883 9886 9889 9893 9897 9900 9904 9908 9912 9915 9919 9923 9927 9933 9939 9945 9949 9953 9958 9963 9969 9973 9977 9982 9985 9989 9993 9997 10004 10013 10017 10021 10028 10034 10038 10045 10053 10058 10062 10068 10074 10082 10089 10095 10100 10106 10110 10116 10122 10129 10135 10139 10142 10145 10150 10155 10160
9843 9844 9845 9846 9847 9848 9850 9851 9853 9855 9857 9858 9860 9862 9865 9869 9873 9876 9879 9882 9886 9889 9893 9896 9900 9904 9907 9911 9914 9919 9925 9930 9935 9939 9943 9947 9952 9956 9960 9966 9969 9972 9976 9979 9983 9991 10001 10006 10010 10017 10021 10025 10033 10040 10043 10048 10053 10059 10066 10072 10078 10083 10088 10093 10099 10105 10111 10116 10121 10125 10128 10132 10137 10142
9841 9842 9843 9844 9845 9845 9847 9848 9849 9851 9852 9854 9855 9857 9860 9863 9867 9869 9871 9875 9878 9881 9885 9888 9891 9895 9899 9902 9906 9910 9916 9921 9925 9929 9933 9936 9940 9944 9949 9953 9957 9962 9966 9969 9974 9982 9990 9995 10000 10005 10009 10014 10020 10026 10029 10033 10039 10045 10050 10055 10060 10065 10070 10075 10081 10086 10091 10097 10102 10107 10111 10115 10120 10125
9838 9839 9840 9841 9842 9843 9844 9845 9846 9847 9848 9850 9851 9853 9855 9858 9861 9863 9865 9868 9871 9874 9877 9879 9882 9886 9890 9894 9898 9903 9907 9912 9916 9920 9924 9927 9931 9935 9939 9943 9948 9953 9957 9961 9968 9974 9979 9984 9989 9994 9998 10003 10008 10013 10017 10021 10026 10031 10035 10039 10044 10048 10054 10058 10063 10068 10074 10079 10084 10089 10093 10097 10101 10107
9836 9836 9837 9838 9839 9840 9841 9841 9842 9843 9844 9845 9847 9849 9851 9854 9856 9858 9860 9862 9865 9868 9870 9872 9875 9879 9882 9886 9890 9895 9899 9904 9908 9912 9916 9920 9924 9929 9932 9935 9939 9943 9947 9953 9958 9962 9966 9971 9976 9980 9985 9990 9995 10000 10004 10007 10012 10016 10020 10025 10030 10034 10040 10044 10047 10053 10058 10063 10067 10071 10075 10079 10084 10089
9834 9834 9834 9835 9836 9837 9838 9839 9839 9840 9841 9842 9843 9845 9847 9850 9852 9853 9854 9857 9859 9861 9863 9865 9869 9873 9876 9879 9883 9888 9892 9896 9900 9904 9907 9911 9915 9919 9921 9925 9929 9933 9937 9942 9947 9951 9955 9959 9963 9967 9973 9978 9982 9987 9990 9994 9998 10002 10006 10011 10016 10020 10024 10028 10032 10037 10042 10045 10049 10053 10056 10061 10068 10072
9831 9832 9832 9832 9833 9834 9834 9835 9836 9837 9838 9838 9839 9841 9843 9845 9847 9848 9849 9851 9853 9854 9856 9859 9863 9867 9871 9874 9878 9882 9886 9889 9892 9894 9898 9901 9905 9909 9912 9916 9920 9924 9928 9933 9937 9941 9945 9948 9952 9956 9960 9965 9969 9973 9977 9981 9984 9988 9992 9997 10002 10006 10009 10013 10016 10021 10025 10028 10031 10035 10039 10044 10050 10055
9830 9830 9830 9830 9830 9831 9831 9832 9833 9834 9834 9835 9836 9837 9839 9841 9843 9844 9844 9846 9847 9848 9850 9853 9856 9860 9864 9867 9871 9875 9878 9881 9884 9887 9891 9894 9897 9901 9905 9908 9912 9915 9919 9923 9926 9930 9933 9936 9939 9944 9948 9952 9956 9960 9964 9967 9971 9975 9979 9983 9987 9991 9995 9998 10001 10005 10009 10012 10015 10019 10024 10028 10032 10036
9828 9828 9828 9828 9828 9828 9828 9829 9830 9830 9831 9832 9833 9834 9835 9837 9838 9840 9840 9841 9842 9843 9845 9847 9850 9854 9857 9860 9863 9867 9869 9872 9876 9879 9882 9886 9890 9893 9896 9899 9902 9905 9909 9912 9916 9919 9922 9925 9929 9933 9938 9941 9944 9948 9951 9956 9960 9963 9965 9968 9972 9977 9980 9983 9985 9989 9993 9995 9999 10003 10008 10011 10015 10018
9828 9827 9827 9826 9826 9826 9826 9827 9827 9827 9828 9829 9829 9830 9832 9833 9835 9836 9837 9837 9838 9839 9840 9842 9845 9848 9851 9854 9857 9860 9863 9866 9869 9872 9874 9878 9881 9884 9887 9890 9892 9896 9899 9903 9907 9910 9913 9916 9920 9924 9928 9931 9933 9937 9941 9944 9948 9950 9951 9954 9958 9962 9965 9966 9969 9973 9976 9979 9983 9988 9991 9994 9998 10001
9827 9826 9826 9825 9825 9825 9825 9825 9825 9825 9825 9826 9826 9827 9828 9829 9831 9832 9833 9834 9834 9835 9836 9838 9841 9843 9846 9849 9852 9855 9858 9861 9864 9865 9868 9871 9874 9876 9879 9881 9884 9887 9891 9894 9898 9901 9904 9907 9910 9914 9917 9920 9922 9925 9929 9932 9934 9935 9936 9939 9942 9946 9948 9950 9953 9957 9961 9964 9969 9973 9976 9979 9982 9984
9828 9827 9826 9825 9825 9824 9824 9824 9824 9823 9823 9824 9824 9824 9825 9826 9827 9829 9830 9831 9832 9832 9833 9835 9837 9839 9842 9844 9847 9850 9853 9856 9858 9860 9862 9865 9868 9870 9873 9875 9877 9881 9884 9887 9890 9893 9896 9899 9901 9904 9907 9909 9911 9914 9916 9918 9919 9920 9922 9925 9928 9931 9934 9937 9941 9945 9949 9952 9956 9959 9961 9963 9965 9966
9828 9827 9827 9826 9825 9824 9823 9823 9822 9822 9822 9822 9822 9822 9823 9824 9825 9826 9827 9828 9829 9830 9831 9832 9833 9835 9838 9840 9843 9845 9847 9850 9852 9854 9856 9859 9862 9864 9867 9869 9872 9875 9878 9880 9883 9886 9888 9891 9893 9896 9898 9900 9902 9904 9905 9905 9907 9909 9912 9915 9918 9921 9925 9927 9931 9935 9938 9939 9941 9943 9945 9947 9948 9949
9829 9828 9827 9826 9825 9824 9823 9822 9822 9821 9821 9821 9820 9820 9821 9821 9822 9823 9824 9825 9826 9827 9828 9830 9831 9832 9834 9836 9838 9841 9843 9845 9847 9849 9851 9853 9856 9858 9860 9863 9865 9868 9870 9872 9875 9878 9880 9882 9884 9887 9889 9891 9893 9894 9893 9895 9899 9901 9902 9905 9909 9911 9913 9916 9918 9920 9922 9923 9924 9927 9929 9931 9933 9935
9829 9828 9827 9826 9825 9824 9823 9822 9821 9821 9820 9820 9819 9819 9819 9819 9820 9821 9822 9823 9824 9825 9826 9827 9828 9829 9831 9833 9835 9837 9839 9841 9843 9845 9847 9848 9850 9852 9855 9857 9859 9861 9863 9865 9868 9869 9871 9874 9876 9878 9879 9881 9882 9883 9883 9886 9890 9891 9892 9894 9897 9899 9900 9903 9905 9906 9908 9910 9912 9914 9917 9920 9922 9923
9828 9827 9826 9825 9824 9823 9822 9821 9820 9820 9819 9819 9818 9818 9818 9818 9819 9819 9820 9821 9821 9822 9823 9825 9826 9827 9828 9830 9831 9833 9835 9837 9839 9841 9842 9844 9846 9848 9850 9852 9853 9855 9857 9859 9861 9863 9865 9866 9868 9869 9871 9871 9872 9874 9876 9878 9880 9881 9882 9884 9886 9887 9889 9892 9894 9895 9896 9897 9898 9900 9902 9904 9906 9907
9828 9827 9826 9825 9824 9823 9822 9821 9820 9819 9818 9818 9817 9817 9817 9817 9817 9818 9818 9819 9819 9820 9821 9822 9823 9824 9826 9827 9828 9830 9831 9833 9834 9836 9838 9839 9841 9843 9845 9846 9848 9849 9851 9852 9854 9856 9857 9859 9860 9861 9862 9863 9864 9865 9867 9869 9869 9870 9872 9874 9876 9877 9879 9881 9882 9882 9883 9883 9885 9887 9889 9890 9891 9892
9827 9826 9825 9824 9824 9823 9822 9821 9820 9819 9818 9817 9816 9816 9816 9816 9816 9816 9817 9817 9818 9819 9819 9820 9821 9822 9823 9824 9825 9826 9828 9829 9830 9832 9833 9834 9836 9837 9839 9840 9841 9843 9844 9846 9847 9849 9850 9851 9852 9853 9854 9855 9855 9857 9858 9859 9859 9861 9863 9865 9866 9867 9867 9867 9869 9870 9871 9872 9873 9876 9877 9877 9878 9881
9827 9826 9825 9824 9823 9822 9821 9820 9820 9819 9818 9817 9816 9816 9815 9815 9815 9815 9815 9815 9816 9817 9817 9818 9819 9820 9821 9822 9822 9824 9825 9826 9827 9828 9829 9830 9831 9833 9834 9835 9836 9837 9839 9840 9841 9842 9843 9844 9845 9846 9847 9847 9848 9849 9849 9849 9851 9853 9854 9856 9856 9856 9855 9856 9857 9859 9860 9860 9861 9863 9863 9864 9867 9870
9826 9825 9824 9823 9822 9821 9820 9819 9819 9818 9817 9817 9816 9816 9815 9815 9815 9815 9814 9814 9814 9815 9815 9816 9817 9818 9818 9819 9820 9821 9822 9823 9824 9825 9826 9826 9828 9828 9829 9830 9831 9832 9833 9834 9835 9836 9837 9837 9838 9839 9839 9840 9841 9841 9840 9841 9843 9845 9845 9845 9846 9846 9845 9845 9846 9848 9849 9849 9848 9848 9849 9851 9854 9857
9825 9824 9823 9822 9821 9820 9819 9818 9818 9817 9816 9816 9816 9815 9815 9814 9814 9814 9814 9814 9813 9814 9814 9814 9815 9815 9816 9816 9817 9818 9819 9819 9820 9821 9822 9822 9823 9824 9825 9825 9826 9826 9827 9828 9828 9829 9830 9830 9830 9831 9831 9832 9833 9833 9833 9833 9834 9834 9834 9834 9835 9835 9835 9835 9836 9836 9836 9835 9833 9834 9837 9840 9843 9844
9824 9823 9822 9821 9820 9819 9818 9817 9816 9816 9815 9815 9814 9814 9813 9813 9813 9813 9812 9812 9812 9812 9812 9812 9812 9813 9813 9813 9814 9815 9815 9816 9817 9817 9818 9819 9819 9820 9820 9821 9821 9822 9822 9822 9823 9823 9823 9823 9824 9824 9823 9824 9825 9825 9824 9824 9824 9824 9825 9825 9825 9824 9824 9824 9824 9823 9824 9823 9821 9823 9828 9831 9833 9833